Time,TemperatureF,DewpointF,PressureIn,WindDirection,WindDirectionDegrees,WindSpeedMPH,WindSpeedGustMPH,Humidity,HourlyPrecipIn,Conditions,Clouds,dailyrainin,SoftwareType,DateUTC
2013-03-06 00:00:00,45.3,43.3,29.25,North,-999,-999.0,-999.0,93,-99.99,,,-99.99,meteohub,2013-03-06 05:00:00,
2013-03-06 00:02:00,45.3,43.3,29.25,North,-999,-999.0,-999.0,93,-99.99,,,-99.99,meteohub,2013-03-06 05:02:00,
2013-03-06 00:07:00,45.3,43.3,29.25,North,-999,-999.0,-999.0,93,-99.99,,,-99.99,meteohub,2013-03-06 05:07:00,
2013-03-06 00:12:00,45.3,43.3,29.25,North,-999,-999.0,-999.0,93,-99.99,,,-99.99,meteohub,2013-03-06 05:12:00,
2013-03-06 00:18:00,45.1,43.2,29.25,North,-999,-999.0,-999.0,93,-99.99,,,-99.99,meteohub,2013-03-06 05:18:00,
2013-03-06 00:23:00,45.1,43.2,29.22,North,-999,-999.0,-999.0,93,-99.99,,,-99.99,meteohub,2013-03-06 05:23:00,
2013-03-06 00:28:00,45.0,43.0,29.22,North,-999,-999.0,-999.0,93,-99.99,,,-99.99,meteohub,2013-03-06 05:28:00,
2013-03-06 00:33:00,44.8,42.8,29.22,North,-999,-999.0,-999.0,93,-99.99,,,-99.99,meteohub,2013-03-06 05:33:00,
2013-03-06 00:38:00,44.8,42.8,29.22,North,-999,-999.0,-999.0,93,-99.99,,,-99.99,meteohub,2013-03-06 05:38:00,
2013-03-06 00:43:00,44.6,42.6,29.22,North,-999,-999.0,-999.0,93,-99.99,,,-99.99,meteohub,2013-03-06 05:43:00,
2013-03-06 00:48:00,44.6,42.6,29.22,North,-999,-999.0,-999.0,93,-99.99,,,-99.99,meteohub,2013-03-06 05:48:00,
2013-03-06 00:54:00,44.6,42.6,29.22,North,-999,-999.0,-999.0,93,-99.99,,,-99.99,meteohub,2013-03-06 05:54:00,
2013-03-06 00:59:00,44.8,42.8,29.22,North,-999,-999.0,-999.0,93,-99.99,,,-99.99,meteohub,2013-03-06 05:59:00,
2013-03-06 01:04:00,44.8,42.8,29.19,North,-999,-999.0,-999.0,93,-99.99,,,-99.99,meteohub,2013-03-06 06:04:00,
2013-03-06 01:09:00,45.1,43.5,29.19,North,-999,-999.0,-999.0,94,-99.99,,,-99.99,meteohub,2013-03-06 06:09:00,
2013-03-06 01:14:00,45.1,43.5,29.19,North,-999,-999.0,-999.0,94,-99.99,,,-99.99,meteohub,2013-03-06 06:14:00,
2013-03-06 01:19:00,45.1,43.5,29.19,North,-999,-999.0,-999.0,94,-99.99,,,-99.99,meteohub,2013-03-06 06:19:00,
2013-03-06 01:24:00,45.1,43.5,29.19,North,-999,-999.0,-999.0,94,-99.99,,,-99.99,meteohub,2013-03-06 06:24:00,
2013-03-06 01:29:00,45.1,43.5,29.19,North,-999,-999.0,-999.0,94,-99.99,,,-99.99,meteohub,2013-03-06 06:29:00,
2013-03-06 01:35:00,45.5,43.9,29.19,North,-999,-999.0,-999.0,94,-99.99,,,-99.99,meteohub,2013-03-06 06:35:00,
2013-03-06 01:40:00,46.2,44.8,29.19,North,-999,-999.0,-999.0,95,-99.99,,,-99.99,meteohub,2013-03-06 06:40:00,
2013-03-06 01:45:00,46.9,45.9,29.19,North,-999,-999.0,-999.0,96,-99.99,,,-99.99,meteohub,2013-03-06 06:45:00,
2013-03-06 01:50:00,46.9,46.2,29.19,North,-999,-999.0,-999.0,97,-99.99,,,-99.99,meteohub,2013-03-06 06:50:00,
2013-03-06 01:55:00,47.3,46.6,29.19,North,-999,-999.0,-999.0,97,-99.99,,,-99.99,meteohub,2013-03-06 06:55:00,
2013-03-06 02:00:00,47.5,46.8,29.19,North,-999,-999.0,-999.0,97,-99.99,,,-99.99,meteohub,2013-03-06 07:00:00,
2013-03-06 02:05:00,47.5,46.8,29.19,North,-999,-999.0,-999.0,97,-99.99,,,-99.99,meteohub,2013-03-06 07:05:00,
2013-03-06 02:10:00,47.3,46.2,29.19,North,-999,-999.0,-999.0,96,-99.99,,,-99.99,meteohub,2013-03-06 07:10:00,
2013-03-06 02:16:00,47.3,46.2,29.19,North,-999,-999.0,-999.0,96,-99.99,,,-99.99,meteohub,2013-03-06 07:16:00,
2013-03-06 02:21:00,47.3,46.2,29.19,North,-999,-999.0,-999.0,96,-99.99,,,-99.99,meteohub,2013-03-06 07:21:00,
2013-03-06 02:26:00,47.3,46.2,29.19,North,-999,-999.0,-999.0,96,-99.99,,,-99.99,meteohub,2013-03-06 07:26:00,
2013-03-06 02:31:00,47.1,46.0,29.19,North,-999,-999.0,-999.0,96,-99.99,,,-99.99,meteohub,2013-03-06 07:31:00,
2013-03-06 02:36:00,46.4,45.0,29.19,North,-999,-999.0,-999.0,95,-99.99,,,-99.99,meteohub,2013-03-06 07:36:00,
2013-03-06 02:41:00,46.2,44.8,29.19,North,-999,-999.0,-999.0,95,-99.99,,,-99.99,meteohub,2013-03-06 07:41:00,
2013-03-06 02:46:00,45.5,43.9,29.19,North,-999,-999.0,-999.0,94,-99.99,,,-99.99,meteohub,2013-03-06 07:46:00,
2013-03-06 02:51:00,45.1,43.5,29.19,North,-999,-999.0,-999.0,94,-99.99,,,-99.99,meteohub,2013-03-06 07:51:00,
2013-03-06 02:57:00,45.0,43.0,29.19,North,-999,-999.0,-999.0,93,-99.99,,,-99.99,meteohub,2013-03-06 07:57:00,
2013-03-06 03:02:00,44.8,42.8,29.19,North,-999,-999.0,-999.0,93,-99.99,,,-99.99,meteohub,2013-03-06 08:02:00,
2013-03-06 03:07:00,44.6,42.6,29.19,North,-999,-999.0,-999.0,93,-99.99,,,-99.99,meteohub,2013-03-06 08:07:00,
2013-03-06 03:12:00,44.4,42.4,29.19,North,-999,-999.0,-999.0,93,-99.99,,,-99.99,meteohub,2013-03-06 08:12:00,
2013-03-06 03:17:00,44.1,42.3,29.19,North,-999,-999.0,-999.0,93,-99.99,,,-99.99,meteohub,2013-03-06 08:17:00,
2013-03-06 03:22:00,43.9,42.1,29.22,North,-999,-999.0,-999.0,93,-99.99,,,-99.99,meteohub,2013-03-06 08:22:00,
2013-03-06 03:27:00,43.5,41.4,29.22,North,-999,-999.0,-999.0,92,-99.99,,,-99.99,meteohub,2013-03-06 08:27:00,
2013-03-06 03:32:00,43.2,41.0,29.22,North,-999,-999.0,-999.0,92,-99.99,,,-99.99,meteohub,2013-03-06 08:32:00,
2013-03-06 03:37:00,43.0,40.8,29.22,North,-999,-999.0,-999.0,92,-99.99,,,-99.99,meteohub,2013-03-06 08:37:00,
2013-03-06 03:42:00,42.8,40.6,29.22,North,-999,-999.0,-999.0,92,-99.99,,,-99.99,meteohub,2013-03-06 08:42:00,
2013-03-06 03:47:00,42.4,39.9,29.22,North,-999,-999.0,-999.0,91,-99.99,,,-99.99,meteohub,2013-03-06 08:47:00,
2013-03-06 03:52:00,42.4,39.9,29.22,North,-999,-999.0,-999.0,91,-99.99,,,-99.99,meteohub,2013-03-06 08:52:00,
2013-03-06 03:57:00,42.1,39.4,29.22,North,-999,-999.0,-999.0,90,-99.99,,,-99.99,meteohub,2013-03-06 08:57:00,
2013-03-06 04:02:00,42.1,39.4,29.22,North,-999,-999.0,-999.0,90,-99.99,,,-99.99,meteohub,2013-03-06 09:02:00,
2013-03-06 04:07:00,41.9,39.2,29.22,North,-999,-999.0,-999.0,90,-99.99,,,-99.99,meteohub,2013-03-06 09:07:00,
2013-03-06 04:12:00,41.7,39.0,29.22,North,-999,-999.0,-999.0,90,-99.99,,,-99.99,meteohub,2013-03-06 09:12:00,
2013-03-06 04:17:00,41.7,39.0,29.22,North,-999,-999.0,-999.0,90,-99.99,,,-99.99,meteohub,2013-03-06 09:17:00,
2013-03-06 04:22:00,41.5,38.8,29.22,North,-999,-999.0,-999.0,90,-99.99,,,-99.99,meteohub,2013-03-06 09:22:00,
2013-03-06 04:27:00,41.5,38.5,29.22,North,-999,-999.0,-999.0,89,-99.99,,,-99.99,meteohub,2013-03-06 09:27:00,
2013-03-06 04:32:00,41.4,38.1,29.22,North,-999,-999.0,-999.0,88,-99.99,,,-99.99,meteohub,2013-03-06 09:32:00,
2013-03-06 04:37:00,41.2,37.6,29.25,North,-999,-999.0,-999.0,87,-99.99,,,-99.99,meteohub,2013-03-06 09:37:00,
2013-03-06 04:42:00,41.0,37.2,29.25,North,-999,-999.0,-999.0,86,-99.99,,,-99.99,meteohub,2013-03-06 09:42:00,
2013-03-06 04:47:00,40.8,37.0,29.25,North,-999,-999.0,-999.0,86,-99.99,,,-99.99,meteohub,2013-03-06 09:47:00,
2013-03-06 04:52:00,40.5,36.3,29.25,North,-999,-999.0,-999.0,85,-99.99,,,-99.99,meteohub,2013-03-06 09:52:00,
2013-03-06 04:57:00,40.3,35.8,29.25,North,-999,-999.0,-999.0,84,-99.99,,,-99.99,meteohub,2013-03-06 09:57:00,
2013-03-06 05:02:00,39.9,35.2,29.25,North,-999,-999.0,-999.0,83,-99.99,,,-99.99,meteohub,2013-03-06 10:02:00,
2013-03-06 05:07:00,39.6,34.5,29.25,North,-999,-999.0,-999.0,82,-99.99,,,-99.99,meteohub,2013-03-06 10:07:00,
2013-03-06 05:12:00,39.4,34.3,29.25,North,-999,-999.0,-999.0,82,-99.99,,,-99.99,meteohub,2013-03-06 10:12:00,
2013-03-06 05:17:00,39.2,34.2,29.25,North,-999,-999.0,-999.0,82,-99.99,,,-99.99,meteohub,2013-03-06 10:17:00,
2013-03-06 05:22:00,38.8,34.2,29.25,North,-999,-999.0,-999.0,83,-99.99,,,-99.99,meteohub,2013-03-06 10:22:00,
2013-03-06 05:27:00,38.8,33.8,29.25,North,-999,-999.0,-999.0,82,-99.99,,,-99.99,meteohub,2013-03-06 10:27:00,
2013-03-06 05:32:00,38.7,33.6,29.25,North,-999,-999.0,-999.0,82,-99.99,,,-99.99,meteohub,2013-03-06 10:32:00,
2013-03-06 05:37:00,38.7,34.0,29.25,North,-999,-999.0,-999.0,83,-99.99,,,-99.99,meteohub,2013-03-06 10:37:00,
2013-03-06 05:42:00,38.5,33.8,29.25,North,-999,-999.0,-999.0,83,-99.99,,,-99.99,meteohub,2013-03-06 10:42:00,
2013-03-06 05:47:00,38.5,34.2,29.25,North,-999,-999.0,-999.0,84,-99.99,,,-99.99,meteohub,2013-03-06 10:47:00,
2013-03-06 05:52:00,38.5,34.2,29.28,North,-999,-999.0,-999.0,84,-99.99,,,-99.99,meteohub,2013-03-06 10:52:00,
2013-03-06 05:58:00,38.3,34.0,29.28,North,-999,-999.0,-999.0,84,-99.99,,,-99.99,meteohub,2013-03-06 10:58:00,
2013-03-06 06:03:00,38.1,33.8,29.28,North,-999,-999.0,-999.0,84,-99.99,,,-99.99,meteohub,2013-03-06 11:03:00,
2013-03-06 06:08:00,38.1,33.4,29.31,North,-999,-999.0,-999.0,83,-99.99,,,-99.99,meteohub,2013-03-06 11:08:00,
2013-03-06 06:13:00,38.1,33.4,29.31,North,-999,-999.0,-999.0,83,-99.99,,,-99.99,meteohub,2013-03-06 11:13:00,
2013-03-06 06:18:00,38.1,33.4,29.31,North,-999,-999.0,-999.0,83,-99.99,,,-99.99,meteohub,2013-03-06 11:18:00,
2013-03-06 06:23:00,38.1,33.4,29.28,North,-999,-999.0,-999.0,83,-99.99,,,-99.99,meteohub,2013-03-06 11:23:00,
2013-03-06 06:29:00,37.9,33.3,29.28,North,-999,-999.0,-999.0,83,-99.99,,,-99.99,meteohub,2013-03-06 11:29:00,
2013-03-06 06:34:00,37.9,32.9,29.28,North,-999,-999.0,-999.0,82,-99.99,,,-99.99,meteohub,2013-03-06 11:34:00,
2013-03-06 06:39:00,37.9,32.9,29.28,North,-999,-999.0,-999.0,82,-99.99,,,-99.99,meteohub,2013-03-06 11:39:00,
2013-03-06 06:44:00,37.9,32.9,29.28,North,-999,-999.0,-999.0,82,-99.99,,,-99.99,meteohub,2013-03-06 11:44:00,
2013-03-06 06:49:00,37.9,32.9,29.28,North,-999,-999.0,-999.0,82,-99.99,,,-99.99,meteohub,2013-03-06 11:49:00,
2013-03-06 06:54:00,37.9,32.9,29.28,North,-999,-999.0,-999.0,82,-99.99,,,-99.99,meteohub,2013-03-06 11:54:00,
2013-03-06 06:59:00,37.9,32.9,29.28,North,-999,-999.0,-999.0,82,-99.99,,,-99.99,meteohub,2013-03-06 11:59:00,
2013-03-06 07:05:00,37.9,33.3,29.31,North,-999,-999.0,-999.0,83,-99.99,,,-99.99,meteohub,2013-03-06 12:05:00,
2013-03-06 07:10:00,38.1,33.4,29.31,North,-999,-999.0,-999.0,83,-99.99,,,-99.99,meteohub,2013-03-06 12:10:00,
2013-03-06 07:15:00,38.1,33.4,29.31,North,-999,-999.0,-999.0,83,-99.99,,,-99.99,meteohub,2013-03-06 12:15:00,
2013-03-06 07:20:00,38.3,33.6,29.34,North,-999,-999.0,-999.0,83,-99.99,,,-99.99,meteohub,2013-03-06 12:20:00,
2013-03-06 07:25:00,38.3,34.0,29.34,North,-999,-999.0,-999.0,84,-99.99,,,-99.99,meteohub,2013-03-06 12:25:00,
2013-03-06 07:30:00,38.5,34.2,29.34,North,-999,-999.0,-999.0,84,-99.99,,,-99.99,meteohub,2013-03-06 12:30:00,
2013-03-06 07:36:00,38.5,33.8,29.34,North,-999,-999.0,-999.0,83,-99.99,,,-99.99,meteohub,2013-03-06 12:36:00,
2013-03-06 07:41:00,38.5,33.3,29.34,North,-999,-999.0,-999.0,81,-99.99,,,-99.99,meteohub,2013-03-06 12:41:00,
2013-03-06 07:46:00,38.3,30.7,29.34,North,-999,-999.0,-999.0,74,-99.99,,,-99.99,meteohub,2013-03-06 12:46:00,
2013-03-06 07:51:00,38.5,30.9,29.34,North,-999,-999.0,-999.0,74,-99.99,,,-99.99,meteohub,2013-03-06 12:51:00,
2013-03-06 07:56:00,38.5,30.6,29.34,North,-999,-999.0,-999.0,73,-99.99,,,-99.99,meteohub,2013-03-06 12:56:00,
2013-03-06 08:02:00,38.5,29.7,29.34,North,-999,-999.0,-999.0,70,-99.99,,,-99.99,meteohub,2013-03-06 13:02:00,
2013-03-06 08:07:00,38.7,29.5,29.34,North,-999,-999.0,-999.0,69,-99.99,,,-99.99,meteohub,2013-03-06 13:07:00,
2013-03-06 08:12:00,38.7,27.9,29.34,North,-999,-999.0,-999.0,65,-99.99,,,-99.99,meteohub,2013-03-06 13:12:00,
2013-03-06 08:17:00,38.7,27.9,29.34,North,-999,-999.0,-999.0,65,-99.99,,,-99.99,meteohub,2013-03-06 13:17:00,
2013-03-06 08:22:00,38.7,27.9,29.34,North,-999,-999.0,-999.0,65,-99.99,,,-99.99,meteohub,2013-03-06 13:22:00,
2013-03-06 08:27:00,38.7,26.8,29.34,North,-999,-999.0,-999.0,62,-99.99,,,-99.99,meteohub,2013-03-06 13:27:00,
2013-03-06 08:32:00,38.8,27.3,29.34,North,-999,-999.0,-999.0,63,-99.99,,,-99.99,meteohub,2013-03-06 13:32:00,
2013-03-06 08:37:00,39.2,28.4,29.34,North,-999,-999.0,-999.0,65,-99.99,,,-99.99,meteohub,2013-03-06 13:37:00,
2013-03-06 08:42:00,39.6,28.4,29.34,North,-999,-999.0,-999.0,64,-99.99,,,-99.99,meteohub,2013-03-06 13:42:00,
2013-03-06 08:47:00,39.7,28.2,29.34,North,-999,-999.0,-999.0,63,-99.99,,,-99.99,meteohub,2013-03-06 13:47:00,
2013-03-06 08:52:00,39.9,26.4,29.34,North,-999,-999.0,-999.0,58,-99.99,,,-99.99,meteohub,2013-03-06 13:52:00,
2013-03-06 08:57:00,40.1,27.0,29.34,North,-999,-999.0,-999.0,59,-99.99,,,-99.99,meteohub,2013-03-06 13:57:00,
2013-03-06 09:02:00,40.3,26.2,29.34,North,-999,-999.0,-999.0,57,-99.99,,,-99.99,meteohub,2013-03-06 14:02:00,
2013-03-06 09:07:00,40.3,27.5,29.34,North,-999,-999.0,-999.0,60,-99.99,,,-99.99,meteohub,2013-03-06 14:07:00,
2013-03-06 09:12:00,40.5,27.0,29.34,North,-999,-999.0,-999.0,58,-99.99,,,-99.99,meteohub,2013-03-06 14:12:00,
2013-03-06 09:17:00,41.0,26.1,29.34,North,-999,-999.0,-999.0,55,-99.99,,,-99.99,meteohub,2013-03-06 14:17:00,
2013-03-06 09:22:00,41.7,26.8,29.34,North,-999,-999.0,-999.0,55,-99.99,,,-99.99,meteohub,2013-03-06 14:22:00,
2013-03-06 09:27:00,41.7,27.1,29.34,North,-999,-999.0,-999.0,56,-99.99,,,-99.99,meteohub,2013-03-06 14:27:00,
2013-03-06 09:33:00,41.5,25.7,29.34,North,-999,-999.0,-999.0,53,-99.99,,,-99.99,meteohub,2013-03-06 14:33:00,
2013-03-06 09:38:00,41.4,25.5,29.34,North,-999,-999.0,-999.0,53,-99.99,,,-99.99,meteohub,2013-03-06 14:38:00,
2013-03-06 09:43:00,42.1,25.7,29.34,North,-999,-999.0,-999.0,52,-99.99,,,-99.99,meteohub,2013-03-06 14:43:00,
2013-03-06 09:48:00,42.4,24.6,29.34,North,-999,-999.0,-999.0,49,-99.99,,,-99.99,meteohub,2013-03-06 14:48:00,
2013-03-06 09:53:00,42.3,25.0,29.34,North,-999,-999.0,-999.0,50,-99.99,,,-99.99,meteohub,2013-03-06 14:53:00,
2013-03-06 09:59:00,41.9,24.3,29.34,North,-999,-999.0,-999.0,49,-99.99,,,-99.99,meteohub,2013-03-06 14:59:00,
2013-03-06 10:04:00,42.4,25.2,29.34,North,-999,-999.0,-999.0,50,-99.99,,,-99.99,meteohub,2013-03-06 15:04:00,
2013-03-06 10:09:00,43.0,24.6,29.34,North,-999,-999.0,-999.0,48,-99.99,,,-99.99,meteohub,2013-03-06 15:09:00,
2013-03-06 10:14:00,43.3,24.4,29.34,North,-999,-999.0,-999.0,47,-99.99,,,-99.99,meteohub,2013-03-06 15:14:00,
2013-03-06 10:19:00,43.7,24.3,29.34,North,-999,-999.0,-999.0,46,-99.99,,,-99.99,meteohub,2013-03-06 15:19:00,
2013-03-06 10:24:00,42.8,23.5,29.34,North,-999,-999.0,-999.0,46,-99.99,,,-99.99,meteohub,2013-03-06 15:24:00,
2013-03-06 10:29:00,43.2,23.4,29.34,North,-999,-999.0,-999.0,45,-99.99,,,-99.99,meteohub,2013-03-06 15:29:00,
2013-03-06 10:34:00,43.0,23.7,29.34,North,-999,-999.0,-999.0,46,-99.99,,,-99.99,meteohub,2013-03-06 15:34:00,
2013-03-06 10:40:00,43.3,23.0,29.34,North,-999,-999.0,-999.0,44,-99.99,,,-99.99,meteohub,2013-03-06 15:40:00,
2013-03-06 10:45:00,43.0,24.3,29.34,North,-999,-999.0,-999.0,47,-99.99,,,-99.99,meteohub,2013-03-06 15:45:00,
2013-03-06 10:50:00,42.8,23.5,29.34,North,-999,-999.0,-999.0,46,-99.99,,,-99.99,meteohub,2013-03-06 15:50:00,
2013-03-06 10:55:00,42.8,23.5,29.34,North,-999,-999.0,-999.0,46,-99.99,,,-99.99,meteohub,2013-03-06 15:55:00,
2013-03-06 11:00:00,43.5,24.6,29.34,North,-999,-999.0,-999.0,47,-99.99,,,-99.99,meteohub,2013-03-06 16:00:00,
2013-03-06 11:05:00,44.1,25.7,29.34,North,-999,-999.0,-999.0,48,-99.99,,,-99.99,meteohub,2013-03-06 16:05:00,
2013-03-06 11:10:00,43.5,24.1,29.34,North,-999,-999.0,-999.0,46,-99.99,,,-99.99,meteohub,2013-03-06 16:10:00,
2013-03-06 11:16:00,43.7,24.3,29.34,North,-999,-999.0,-999.0,46,-99.99,,,-99.99,meteohub,2013-03-06 16:16:00,
2013-03-06 11:21:00,43.5,24.6,29.34,North,-999,-999.0,-999.0,47,-99.99,,,-99.99,meteohub,2013-03-06 16:21:00,
2013-03-06 11:26:00,44.1,24.1,29.34,North,-999,-999.0,-999.0,45,-99.99,,,-99.99,meteohub,2013-03-06 16:26:00,
2013-03-06 11:31:00,44.6,24.6,29.34,North,-999,-999.0,-999.0,45,-99.99,,,-99.99,meteohub,2013-03-06 16:31:00,
2013-03-06 11:36:00,44.2,23.7,29.34,North,-999,-999.0,-999.0,44,-99.99,,,-99.99,meteohub,2013-03-06 16:36:00,
2013-03-06 11:41:00,44.1,23.5,29.34,North,-999,-999.0,-999.0,44,-99.99,,,-99.99,meteohub,2013-03-06 16:41:00,
2013-03-06 11:46:00,43.7,22.6,29.34,North,-999,-999.0,-999.0,43,-99.99,,,-99.99,meteohub,2013-03-06 16:46:00,
2013-03-06 11:51:00,43.5,23.2,29.36,North,-999,-999.0,-999.0,44,-99.99,,,-99.99,meteohub,2013-03-06 16:51:00,
2013-03-06 11:57:00,43.3,23.0,29.36,North,-999,-999.0,-999.0,44,-99.99,,,-99.99,meteohub,2013-03-06 16:57:00,
2013-03-06 12:02:00,43.3,24.1,29.36,North,-999,-999.0,-999.0,46,-99.99,,,-99.99,meteohub,2013-03-06 17:02:00,
2013-03-06 12:07:00,43.0,22.6,29.36,North,-999,-999.0,-999.0,44,-99.99,,,-99.99,meteohub,2013-03-06 17:07:00,
2013-03-06 12:12:00,42.8,23.0,29.36,North,-999,-999.0,-999.0,45,-99.99,,,-99.99,meteohub,2013-03-06 17:12:00,
2013-03-06 12:17:00,43.2,22.8,29.36,North,-999,-999.0,-999.0,44,-99.99,,,-99.99,meteohub,2013-03-06 17:17:00,
2013-03-06 12:22:00,43.0,22.6,29.36,North,-999,-999.0,-999.0,44,-99.99,,,-99.99,meteohub,2013-03-06 17:22:00,
2013-03-06 12:27:00,43.2,22.8,29.36,North,-999,-999.0,-999.0,44,-99.99,,,-99.99,meteohub,2013-03-06 17:27:00,
2013-03-06 12:32:00,43.3,23.0,29.36,North,-999,-999.0,-999.0,44,-99.99,,,-99.99,meteohub,2013-03-06 17:32:00,
2013-03-06 12:37:00,43.3,22.5,29.34,North,-999,-999.0,-999.0,43,-99.99,,,-99.99,meteohub,2013-03-06 17:37:00,
2013-03-06 12:42:00,43.5,22.6,29.34,North,-999,-999.0,-999.0,43,-99.99,,,-99.99,meteohub,2013-03-06 17:42:00,
2013-03-06 12:47:00,43.5,23.2,29.34,North,-999,-999.0,-999.0,44,-99.99,,,-99.99,meteohub,2013-03-06 17:47:00,
2013-03-06 12:52:00,43.5,22.6,29.36,North,-999,-999.0,-999.0,43,-99.99,,,-99.99,meteohub,2013-03-06 17:52:00,
2013-03-06 12:57:00,43.5,22.6,29.36,North,-999,-999.0,-999.0,43,-99.99,,,-99.99,meteohub,2013-03-06 17:57:00,
2013-03-06 13:02:00,43.7,23.2,29.36,North,-999,-999.0,-999.0,44,-99.99,,,-99.99,meteohub,2013-03-06 18:02:00,
2013-03-06 13:07:00,43.7,22.6,29.36,North,-999,-999.0,-999.0,43,-99.99,,,-99.99,meteohub,2013-03-06 18:07:00,
2013-03-06 13:12:00,43.7,22.6,29.36,North,-999,-999.0,-999.0,43,-99.99,,,-99.99,meteohub,2013-03-06 18:12:00,
2013-03-06 13:17:00,43.9,23.4,29.36,North,-999,-999.0,-999.0,44,-99.99,,,-99.99,meteohub,2013-03-06 18:17:00,
2013-03-06 13:22:00,44.6,23.5,29.34,North,-999,-999.0,-999.0,43,-99.99,,,-99.99,meteohub,2013-03-06 18:22:00,
2013-03-06 13:27:00,44.8,23.7,29.34,North,-999,-999.0,-999.0,43,-99.99,,,-99.99,meteohub,2013-03-06 18:27:00,
2013-03-06 13:32:00,45.1,24.6,29.34,North,-999,-999.0,-999.0,44,-99.99,,,-99.99,meteohub,2013-03-06 18:32:00,
2013-03-06 13:37:00,45.3,25.3,29.36,North,-999,-999.0,-999.0,45,-99.99,,,-99.99,meteohub,2013-03-06 18:37:00,
2013-03-06 13:42:00,45.1,23.5,29.36,North,-999,-999.0,-999.0,42,-99.99,,,-99.99,meteohub,2013-03-06 18:42:00,
2013-03-06 13:47:00,45.1,23.5,29.36,North,-999,-999.0,-999.0,42,-99.99,,,-99.99,meteohub,2013-03-06 18:47:00,
2013-03-06 13:52:00,45.3,24.3,29.36,North,-999,-999.0,-999.0,43,-99.99,,,-99.99,meteohub,2013-03-06 18:52:00,
2013-03-06 13:57:00,45.5,24.4,29.36,North,-999,-999.0,-999.0,43,-99.99,,,-99.99,meteohub,2013-03-06 18:57:00,
2013-03-06 14:02:00,45.3,24.3,29.36,North,-999,-999.0,-999.0,43,-99.99,,,-99.99,meteohub,2013-03-06 19:02:00,
2013-03-06 14:07:00,45.5,24.4,29.36,North,-999,-999.0,-999.0,43,-99.99,,,-99.99,meteohub,2013-03-06 19:07:00,
2013-03-06 14:13:00,45.5,25.0,29.36,North,-999,-999.0,-999.0,44,-99.99,,,-99.99,meteohub,2013-03-06 19:13:00,
2013-03-06 14:18:00,45.9,24.6,29.36,North,-999,-999.0,-999.0,43,-99.99,,,-99.99,meteohub,2013-03-06 19:18:00,
2013-03-06 14:23:00,46.4,25.7,29.36,North,-999,-999.0,-999.0,44,-99.99,,,-99.99,meteohub,2013-03-06 19:23:00,
2013-03-06 14:28:00,46.8,26.1,29.36,North,-999,-999.0,-999.0,44,-99.99,,,-99.99,meteohub,2013-03-06 19:28:00,
2013-03-06 14:33:00,46.8,26.1,29.36,North,-999,-999.0,-999.0,44,-99.99,,,-99.99,meteohub,2013-03-06 19:33:00,
2013-03-06 14:38:00,46.8,26.1,29.39,North,-999,-999.0,-999.0,44,-99.99,,,-99.99,meteohub,2013-03-06 19:38:00,
2013-03-06 14:43:00,47.1,25.9,29.39,North,-999,-999.0,-999.0,43,-99.99,,,-99.99,meteohub,2013-03-06 19:43:00,
2013-03-06 14:49:00,47.3,26.1,29.36,North,-999,-999.0,-999.0,43,-99.99,,,-99.99,meteohub,2013-03-06 19:49:00,
2013-03-06 14:54:00,46.9,25.7,29.36,North,-999,-999.0,-999.0,43,-99.99,,,-99.99,meteohub,2013-03-06 19:54:00,
2013-03-06 14:59:00,46.8,26.1,29.36,North,-999,-999.0,-999.0,44,-99.99,,,-99.99,meteohub,2013-03-06 19:59:00,
2013-03-06 15:04:00,46.8,25.5,29.39,North,-999,-999.0,-999.0,43,-99.99,,,-99.99,meteohub,2013-03-06 20:04:00,
2013-03-06 15:10:00,46.9,26.2,29.39,North,-999,-999.0,-999.0,44,-99.99,,,-99.99,meteohub,2013-03-06 20:10:00,
2013-03-06 15:15:00,46.9,26.2,29.39,North,-999,-999.0,-999.0,44,-99.99,,,-99.99,meteohub,2013-03-06 20:15:00,
2013-03-06 15:20:00,47.1,26.4,29.39,North,-999,-999.0,-999.0,44,-99.99,,,-99.99,meteohub,2013-03-06 20:20:00,
2013-03-06 15:25:00,47.3,26.1,29.39,North,-999,-999.0,-999.0,43,-99.99,,,-99.99,meteohub,2013-03-06 20:25:00,
2013-03-06 15:30:00,47.3,26.6,29.39,North,-999,-999.0,-999.0,44,-99.99,,,-99.99,meteohub,2013-03-06 20:30:00,
2013-03-06 15:36:00,47.3,26.6,29.39,North,-999,-999.0,-999.0,44,-99.99,,,-99.99,meteohub,2013-03-06 20:36:00,
2013-03-06 15:41:00,47.1,26.4,29.39,North,-999,-999.0,-999.0,44,-99.99,,,-99.99,meteohub,2013-03-06 20:41:00,
2013-03-06 15:46:00,47.1,27.0,29.39,North,-999,-999.0,-999.0,45,-99.99,,,-99.99,meteohub,2013-03-06 20:46:00,
2013-03-06 15:51:00,46.9,26.8,29.42,North,-999,-999.0,-999.0,45,-99.99,,,-99.99,meteohub,2013-03-06 20:51:00,
2013-03-06 15:57:00,46.9,27.3,29.42,North,-999,-999.0,-999.0,46,-99.99,,,-99.99,meteohub,2013-03-06 20:57:00,
2013-03-06 16:02:00,46.9,26.8,29.42,North,-999,-999.0,-999.0,45,-99.99,,,-99.99,meteohub,2013-03-06 21:02:00,
2013-03-06 16:07:00,46.9,27.3,29.42,North,-999,-999.0,-999.0,46,-99.99,,,-99.99,meteohub,2013-03-06 21:07:00,
2013-03-06 16:12:00,46.9,26.8,29.42,North,-999,-999.0,-999.0,45,-99.99,,,-99.99,meteohub,2013-03-06 21:12:00,
2013-03-06 16:17:00,46.9,27.3,29.42,North,-999,-999.0,-999.0,46,-99.99,,,-99.99,meteohub,2013-03-06 21:17:00,
2013-03-06 16:22:00,46.9,27.9,29.45,North,-999,-999.0,-999.0,47,-99.99,,,-99.99,meteohub,2013-03-06 21:22:00,
2013-03-06 16:27:00,46.9,27.9,29.45,North,-999,-999.0,-999.0,47,-99.99,,,-99.99,meteohub,2013-03-06 21:27:00,
2013-03-06 16:32:00,46.8,27.7,29.45,North,-999,-999.0,-999.0,47,-99.99,,,-99.99,meteohub,2013-03-06 21:32:00,
2013-03-06 16:37:00,46.9,27.9,29.45,North,-999,-999.0,-999.0,47,-99.99,,,-99.99,meteohub,2013-03-06 21:37:00,
2013-03-06 16:42:00,46.9,27.3,29.45,North,-999,-999.0,-999.0,46,-99.99,,,-99.99,meteohub,2013-03-06 21:42:00,
2013-03-06 16:47:00,47.1,28.0,29.45,North,-999,-999.0,-999.0,47,-99.99,,,-99.99,meteohub,2013-03-06 21:47:00,
2013-03-06 16:52:00,47.1,28.0,29.45,North,-999,-999.0,-999.0,47,-99.99,,,-99.99,meteohub,2013-03-06 21:52:00,
2013-03-06 16:57:00,47.1,28.4,29.45,North,-999,-999.0,-999.0,48,-99.99,,,-99.99,meteohub,2013-03-06 21:57:00,
2013-03-06 17:02:00,46.6,28.4,29.45,North,-999,-999.0,-999.0,49,-99.99,,,-99.99,meteohub,2013-03-06 22:02:00,
2013-03-06 17:07:00,46.6,28.4,29.48,North,-999,-999.0,-999.0,49,-99.99,,,-99.99,meteohub,2013-03-06 22:07:00,
2013-03-06 17:12:00,46.4,28.8,29.48,North,-999,-999.0,-999.0,50,-99.99,,,-99.99,meteohub,2013-03-06 22:12:00,
2013-03-06 17:17:00,46.4,29.3,29.48,North,-999,-999.0,-999.0,51,-99.99,,,-99.99,meteohub,2013-03-06 22:17:00,
2013-03-06 17:22:00,46.2,29.1,29.51,North,-999,-999.0,-999.0,51,-99.99,,,-99.99,meteohub,2013-03-06 22:22:00,
2013-03-06 17:27:00,46.2,29.1,29.51,North,-999,-999.0,-999.0,51,-99.99,,,-99.99,meteohub,2013-03-06 22:27:00,
2013-03-06 17:32:00,46.0,28.9,29.51,North,-999,-999.0,-999.0,51,-99.99,,,-99.99,meteohub,2013-03-06 22:32:00,
2013-03-06 17:37:00,46.0,29.5,29.51,North,-999,-999.0,-999.0,52,-99.99,,,-99.99,meteohub,2013-03-06 22:37:00,
2013-03-06 17:42:00,45.9,29.3,29.51,North,-999,-999.0,-999.0,52,-99.99,,,-99.99,meteohub,2013-03-06 22:42:00,
2013-03-06 17:47:00,45.9,29.3,29.51,North,-999,-999.0,-999.0,52,-99.99,,,-99.99,meteohub,2013-03-06 22:47:00,
2013-03-06 17:52:00,45.9,29.3,29.51,North,-999,-999.0,-999.0,52,-99.99,,,-99.99,meteohub,2013-03-06 22:52:00,
2013-03-06 17:57:00,45.7,29.1,29.51,North,-999,-999.0,-999.0,52,-99.99,,,-99.99,meteohub,2013-03-06 22:57:00,
2013-03-06 18:02:00,45.7,28.6,29.51,North,-999,-999.0,-999.0,51,-99.99,,,-99.99,meteohub,2013-03-06 23:02:00,
2013-03-06 18:07:00,45.7,28.6,29.54,North,-999,-999.0,-999.0,51,-99.99,,,-99.99,meteohub,2013-03-06 23:07:00,
2013-03-06 18:12:00,45.7,28.6,29.54,North,-999,-999.0,-999.0,51,-99.99,,,-99.99,meteohub,2013-03-06 23:12:00,
2013-03-06 18:17:00,45.7,28.6,29.54,North,-999,-999.0,-999.0,51,-99.99,,,-99.99,meteohub,2013-03-06 23:17:00,
2013-03-06 18:22:00,45.9,28.4,29.54,North,-999,-999.0,-999.0,50,-99.99,,,-99.99,meteohub,2013-03-06 23:22:00,
2013-03-06 18:27:00,45.9,27.9,29.54,North,-999,-999.0,-999.0,49,-99.99,,,-99.99,meteohub,2013-03-06 23:27:00,
2013-03-06 18:32:00,45.9,28.4,29.54,North,-999,-999.0,-999.0,50,-99.99,,,-99.99,meteohub,2013-03-06 23:32:00,
2013-03-06 18:37:00,45.9,27.9,29.57,North,-999,-999.0,-999.0,49,-99.99,,,-99.99,meteohub,2013-03-06 23:37:00,
2013-03-06 18:42:00,45.9,27.9,29.57,North,-999,-999.0,-999.0,49,-99.99,,,-99.99,meteohub,2013-03-06 23:42:00,
2013-03-06 18:47:00,45.9,27.3,29.57,North,-999,-999.0,-999.0,48,-99.99,,,-99.99,meteohub,2013-03-06 23:47:00,
2013-03-06 18:52:00,45.5,27.0,29.57,North,-999,-999.0,-999.0,48,-99.99,,,-99.99,meteohub,2013-03-06 23:52:00,
2013-03-06 18:57:00,45.5,27.0,29.57,North,-999,-999.0,-999.0,48,-99.99,,,-99.99,meteohub,2013-03-06 23:57:00,
2013-03-06 19:02:00,45.5,27.0,29.57,North,-999,-999.0,-999.0,48,-99.99,,,-99.99,meteohub,2013-03-07 00:02:00,
2013-03-06 19:07:00,45.3,26.8,29.60,North,-999,-999.0,-999.0,48,-99.99,,,-99.99,meteohub,2013-03-07 00:07:00,
2013-03-06 19:12:00,45.1,26.6,29.60,North,-999,-999.0,-999.0,48,-99.99,,,-99.99,meteohub,2013-03-07 00:12:00,
2013-03-06 19:17:00,45.1,26.6,29.60,North,-999,-999.0,-999.0,48,-99.99,,,-99.99,meteohub,2013-03-07 00:17:00,
2013-03-06 19:22:00,45.1,26.6,29.60,North,-999,-999.0,-999.0,48,-99.99,,,-99.99,meteohub,2013-03-07 00:22:00,
2013-03-06 19:27:00,45.0,26.4,29.60,North,-999,-999.0,-999.0,48,-99.99,,,-99.99,meteohub,2013-03-07 00:27:00,
2013-03-06 19:32:00,44.8,26.4,29.60,North,-999,-999.0,-999.0,48,-99.99,,,-99.99,meteohub,2013-03-07 00:32:00,
2013-03-06 19:37:00,44.8,26.4,29.63,North,-999,-999.0,-999.0,48,-99.99,,,-99.99,meteohub,2013-03-07 00:37:00,
2013-03-06 19:42:00,44.8,26.4,29.63,North,-999,-999.0,-999.0,48,-99.99,,,-99.99,meteohub,2013-03-07 00:42:00,
2013-03-06 19:47:00,44.6,26.2,29.63,North,-999,-999.0,-999.0,48,-99.99,,,-99.99,meteohub,2013-03-07 00:47:00,
2013-03-06 19:52:00,44.2,26.4,29.63,North,-999,-999.0,-999.0,49,-99.99,,,-99.99,meteohub,2013-03-07 00:52:00,
2013-03-06 19:57:00,44.1,26.2,29.63,North,-999,-999.0,-999.0,49,-99.99,,,-99.99,meteohub,2013-03-07 00:57:00,
2013-03-06 20:02:00,43.9,26.1,29.63,North,-999,-999.0,-999.0,49,-99.99,,,-99.99,meteohub,2013-03-07 01:02:00,
2013-03-06 20:07:00,43.7,25.9,29.63,North,-999,-999.0,-999.0,49,-99.99,,,-99.99,meteohub,2013-03-07 01:07:00,
2013-03-06 20:12:00,43.3,25.5,29.63,North,-999,-999.0,-999.0,49,-99.99,,,-99.99,meteohub,2013-03-07 01:12:00,
2013-03-06 20:17:00,43.2,25.9,29.63,North,-999,-999.0,-999.0,50,-99.99,,,-99.99,meteohub,2013-03-07 01:17:00,
2013-03-06 20:22:00,43.2,25.9,29.63,North,-999,-999.0,-999.0,50,-99.99,,,-99.99,meteohub,2013-03-07 01:22:00,
2013-03-06 20:27:00,43.0,25.7,29.63,North,-999,-999.0,-999.0,50,-99.99,,,-99.99,meteohub,2013-03-07 01:27:00,
2013-03-06 20:32:00,42.8,25.5,29.63,North,-999,-999.0,-999.0,50,-99.99,,,-99.99,meteohub,2013-03-07 01:32:00,
2013-03-06 20:37:00,42.4,25.7,29.66,North,-999,-999.0,-999.0,51,-99.99,,,-99.99,meteohub,2013-03-07 01:37:00,
2013-03-06 20:43:00,42.4,25.7,29.66,North,-999,-999.0,-999.0,51,-99.99,,,-99.99,meteohub,2013-03-07 01:43:00,
2013-03-06 20:48:00,42.6,25.9,29.66,North,-999,-999.0,-999.0,51,-99.99,,,-99.99,meteohub,2013-03-07 01:48:00,
2013-03-06 20:53:00,42.6,25.9,29.66,North,-999,-999.0,-999.0,51,-99.99,,,-99.99,meteohub,2013-03-07 01:53:00,
2013-03-06 20:58:00,42.6,25.9,29.66,North,-999,-999.0,-999.0,51,-99.99,,,-99.99,meteohub,2013-03-07 01:58:00,
2013-03-06 21:03:00,42.4,25.7,29.66,North,-999,-999.0,-999.0,51,-99.99,,,-99.99,meteohub,2013-03-07 02:03:00,
2013-03-06 21:08:00,42.3,25.5,29.66,North,-999,-999.0,-999.0,51,-99.99,,,-99.99,meteohub,2013-03-07 02:08:00,
2013-03-06 21:13:00,42.3,25.5,29.66,North,-999,-999.0,-999.0,51,-99.99,,,-99.99,meteohub,2013-03-07 02:13:00,
2013-03-06 21:19:00,42.1,25.7,29.66,North,-999,-999.0,-999.0,52,-99.99,,,-99.99,meteohub,2013-03-07 02:19:00,
2013-03-06 21:24:00,42.1,25.7,29.66,North,-999,-999.0,-999.0,52,-99.99,,,-99.99,meteohub,2013-03-07 02:24:00,
2013-03-06 21:29:00,42.1,25.7,29.66,North,-999,-999.0,-999.0,52,-99.99,,,-99.99,meteohub,2013-03-07 02:29:00,
2013-03-06 21:34:00,42.1,25.7,29.66,North,-999,-999.0,-999.0,52,-99.99,,,-99.99,meteohub,2013-03-07 02:34:00,
2013-03-06 21:39:00,42.1,25.7,29.66,North,-999,-999.0,-999.0,52,-99.99,,,-99.99,meteohub,2013-03-07 02:39:00,
2013-03-06 21:44:00,42.1,25.3,29.66,North,-999,-999.0,-999.0,51,-99.99,,,-99.99,meteohub,2013-03-07 02:44:00,
2013-03-06 21:49:00,41.9,25.5,29.66,North,-999,-999.0,-999.0,52,-99.99,,,-99.99,meteohub,2013-03-07 02:49:00,
2013-03-06 21:54:00,41.9,25.5,29.66,North,-999,-999.0,-999.0,52,-99.99,,,-99.99,meteohub,2013-03-07 02:54:00,
2013-03-06 22:00:00,41.7,25.5,29.66,North,-999,-999.0,-999.0,52,-99.99,,,-99.99,meteohub,2013-03-07 03:00:00,
2013-03-06 22:05:00,41.7,25.5,29.69,North,-999,-999.0,-999.0,52,-99.99,,,-99.99,meteohub,2013-03-07 03:05:00,
2013-03-06 22:10:00,41.4,25.2,29.69,North,-999,-999.0,-999.0,52,-99.99,,,-99.99,meteohub,2013-03-07 03:10:00,
2013-03-06 22:15:00,41.2,25.0,29.69,North,-999,-999.0,-999.0,52,-99.99,,,-99.99,meteohub,2013-03-07 03:15:00,
2013-03-06 22:20:00,41.0,24.8,29.66,North,-999,-999.0,-999.0,52,-99.99,,,-99.99,meteohub,2013-03-07 03:20:00,
2013-03-06 22:25:00,40.6,24.8,29.66,North,-999,-999.0,-999.0,53,-99.99,,,-99.99,meteohub,2013-03-07 03:25:00,
2013-03-06 22:30:00,40.5,24.8,29.66,North,-999,-999.0,-999.0,53,-99.99,,,-99.99,meteohub,2013-03-07 03:30:00,
2013-03-06 22:36:00,40.3,24.6,29.66,North,-999,-999.0,-999.0,53,-99.99,,,-99.99,meteohub,2013-03-07 03:36:00,
2013-03-06 22:41:00,40.1,24.4,29.66,North,-999,-999.0,-999.0,53,-99.99,,,-99.99,meteohub,2013-03-07 03:41:00,
2013-03-06 22:46:00,39.9,24.6,29.66,North,-999,-999.0,-999.0,54,-99.99,,,-99.99,meteohub,2013-03-07 03:46:00,
2013-03-06 22:51:00,39.9,24.6,29.69,North,-999,-999.0,-999.0,54,-99.99,,,-99.99,meteohub,2013-03-07 03:51:00,
2013-03-06 22:56:00,39.7,24.4,29.69,North,-999,-999.0,-999.0,54,-99.99,,,-99.99,meteohub,2013-03-07 03:56:00,
2013-03-06 23:02:00,39.6,24.3,29.69,North,-999,-999.0,-999.0,54,-99.99,,,-99.99,meteohub,2013-03-07 04:02:00,
2013-03-06 23:07:00,39.4,24.6,29.69,North,-999,-999.0,-999.0,55,-99.99,,,-99.99,meteohub,2013-03-07 04:07:00,
2013-03-06 23:12:00,39.4,24.6,29.69,North,-999,-999.0,-999.0,55,-99.99,,,-99.99,meteohub,2013-03-07 04:12:00,
2013-03-06 23:17:00,39.2,24.4,29.69,North,-999,-999.0,-999.0,55,-99.99,,,-99.99,meteohub,2013-03-07 04:17:00,
2013-03-06 23:22:00,39.0,24.3,29.69,North,-999,-999.0,-999.0,55,-99.99,,,-99.99,meteohub,2013-03-07 04:22:00,
2013-03-06 23:27:00,38.8,24.4,29.69,North,-999,-999.0,-999.0,56,-99.99,,,-99.99,meteohub,2013-03-07 04:27:00,
2013-03-06 23:33:00,38.7,24.4,29.69,North,-999,-999.0,-999.0,56,-99.99,,,-99.99,meteohub,2013-03-07 04:33:00,
2013-03-06 23:38:00,38.7,24.4,29.69,North,-999,-999.0,-999.0,56,-99.99,,,-99.99,meteohub,2013-03-07 04:38:00,
2013-03-06 23:43:00,38.7,24.8,29.69,North,-999,-999.0,-999.0,57,-99.99,,,-99.99,meteohub,2013-03-07 04:43:00,
2013-03-06 23:48:00,38.7,24.8,29.69,North,-999,-999.0,-999.0,57,-99.99,,,-99.99,meteohub,2013-03-07 04:48:00,
2013-03-06 23:53:00,38.7,24.8,29.69,North,-999,-999.0,-999.0,57,-99.99,,,-99.99,meteohub,2013-03-07 04:53:00,
2013-03-06 23:58:00,38.5,24.6,29.69,North,-999,-999.0,-999.0,57,-99.99,,,-99.99,meteohub,2013-03-07 04:58:00,